Regional Weather Roundup
Issued by NWS

Home | Current Version | Previous Version | Graphics & Text | Print | Product List | Glossary On
Versions: 1 2 3 4 5 6 7 8 9 10 11 12 13 14 15 16 17 18 19 20 21 22 23 24 25 26 27 28 29 30 31 32 33 34 35 36 37 38 39 40 41 42 43 44 45 46 47 48 49 50
000
ASUS43 KTOP 260008
RWRKS

WEATHER ROUNDUP FOR KANSAS
NATIONAL WEATHER SERVICE GOODLAND KS
700 PM CDT WED MAY 25 2016

NOTE:  "FAIR" INDICATES FEW OR NO CLOUDS BELOW 12,000 FEET WITH NO
SIGNIFICANT WEATHER AND/OR OBSTRUCTIONS TO VISIBILITY.

KSZ001>006-013>018-027>032-041>047-260100-
NORTHWEST KANSAS

CITY           SKY/WX    TMP DP  RH WIND       PRES   REMARKS
GOODLAND       SUNNY     78  43  28 S7        29.89R
6HR MIN TEMP:  67; 6HR MAX TEMP:  80;

HAYS           MOSUNNY   72  64  78 N5        29.83F
HILL CITY      MOSUNNY   75  62  64 VRB5      29.86S
6HR MIN TEMP:  68; 6HR MAX TEMP:  77;

RUSSELL        MOSUNNY   79  69  71 NW6       29.82R
6HR MIN TEMP:  69; 6HR MAX TEMP:  80;

$$

KSZ061>065-074>080-084>089-260100-
SOUTHWEST KANSAS

CITY           SKY/WX    TMP DP  RH WIND       PRES   REMARKS
DODGE CITY     SUNNY     80  65  59 N12       29.85S
6HR MIN TEMP:  77; 6HR MAX TEMP:  85;

ELKHART          N/A     86  29  12 SW9         N/A
GARDEN CITY    SUNNY     86  47  25 NE7       29.84F
6HR MIN TEMP:  77; 6HR MAX TEMP:  86;

GREAT BEND     SUNNY     82  68  61 N10       29.81R
LIBERAL        SUNNY     88  34  14 SW6       29.85S
PRATT          SUNNY     82  61  49 SW5       29.82S
6HR MIN TEMP:  80; 6HR MAX TEMP:  86;

$$

KSZ066>073-081>083-090>101-260100-
SOUTHEAST KANSAS

CITY           SKY/WX    TMP DP  RH WIND       PRES   REMARKS
CHANUTE        MOSUNNY   81  72  74 S13       29.85F
6HR MIN TEMP:  80; 6HR MAX TEMP:  82;

COFFEYVILLE    MOSUNNY   82  75  79 S9        29.85S
6HR MIN TEMP:  80; 6HR MAX TEMP:  84;

HUTCHINSON     SUNNY     88  65  46 S9        29.78F
6HR MIN TEMP:  81; 6HR MAX TEMP:  91;

MEDICINE LODGE   N/A     92  49  22 S5        29.79S
NEWTON         MOSUNNY   84  72  65 S17G23      N/A
PARSONS        MOSUNNY   83  76  79 S5        29.87S
6HR MIN TEMP:  80; 6HR MAX TEMP:  84;

WICHITA INTL   MOSUNNY   87  72  60 S15       29.78F
6HR MIN TEMP:  79; 6HR MAX TEMP:  90;

WICHITA JABRA  MOSUNNY   85  73  67 S16G24    29.80S
6HR MIN TEMP:  77; 6HR MAX TEMP:  88;

WICHITA MCCONL SUNNY     86  72  63 S21       29.80S
WINFIELD       SUNNY     84  72  67 S18G24    29.82S
6HR MIN TEMP:  81; 6HR MAX TEMP:  87;

$$

KSZ007>012-019>026-033>040-048>060-102>105-260100-
NORTHEAST KANSAS

CITY           SKY/WX    TMP DP  RH WIND       PRES   REMARKS
CONCORDIA      CLOUDY    78  69  73 E8        29.81S
6HR MIN TEMP:  69; 6HR MAX TEMP:  79;

EMPORIA        MOSUNNY   80  72  76 SE12      29.81F
6HR MIN TEMP:  75; 6HR MAX TEMP:  81;

LAWRENCE       PTSUNNY   81  68  64 S13       29.83F
6HR MIN TEMP:  75; 6HR MAX TEMP:  84;

MANHATTAN      CLOUDY    79  69  71 SE7       29.80S
6HR MIN TEMP:  75; 6HR MAX TEMP:  83;

MARYSVILLE     MOSUNNY   79  72  78 E7        29.82S
OLATHE IND     MOSUNNY   80  68  66 S9        29.86F
6HR MIN TEMP:  75; 6HR MAX TEMP:  82;

OLATHE EXE     MOSUNNY   78  67  68 S9        29.86F
6HR MIN TEMP:  73; 6HR MAX TEMP:  80;

SALINA         CLOUDY    87  71  58 S8        29.76F
6HR MIN TEMP:  83; 6HR MAX TEMP:  88;

TOPEKA BILLARD SUNNY     81  68  64 SE14      29.82F
6HR MIN TEMP:  72; 6HR MAX TEMP:  83;

TOPEKA FORBES  SUNNY     81  69  67 S13       29.82F
6HR MIN TEMP:  73; 6HR MAX TEMP:  84;

$$



USA.gov is the U.S. government's official web portal to all federal, state and local government web resources and services.